Theta_e
293 292 292 292 292 292 291 290 290 289 289 289 288 287 287 286 286 286 286 286 287 290 290 290 290 291 290 291 291 291 290 290 287 288 291 292 290 290 290 290 292 291 291
292 292 292 292 291 290 289 289 289 288 288 287 287 286 286 286 286 286 286 286 285 287 289 289 289 290 290 290 290 290 289 290 288 286 288 288 289 289 288 288 290 291 289
290 291 291 289 289 289 288 288 288 287 287 286 286 286 285 285 285 285 285 285 289 289 289 289 289 289 289 289 289 289 289 289 289 287 286 288 288 289 287 289 289 289 289
289 289 289 289 289 289 288 288 288 287 286 286 286 285 285 285 285 285 285 285 288 288 289 289 289 289 288 288 288 288 289 288 288 286 285 285 286 287 287 285 286 289 288
289 289 289 289 289 288 288 288 287 287 286 286 285 285 285 285 285 285 285 285 286 287 288 289 289 288 287 288 288 288 288 287 287 285 285 286 285 285 285 287 286 286 285
290 290 289 289 288 288 287 287 286 286 286 285 285 285 284 285 289 289 287 285 287 286 286 287 288 286 287 288 288 289 289 287 287 286 285 284 286 285 286 285 283 281 279
289 289 289 289 288 287 287 287 286 286 286 285 284 284 284 284 290 290 288 285 285 285 285 286 286 286 286 286 286 288 288 289 290 289 286 286 286 286 282 281 281 280 279
288 289 289 288 287 286 287 286 286 286 285 284 284 284 283 285 289 289 288 285 284 284 284 285 285 285 286 285 286 286 286 286 287 288 288 288 286 283 282 281 279 279 280
286 286 286 287 286 286 286 286 286 285 284 284 284 283 284 284 288 288 287 284 283 283 285 285 285 285 286 287 286 285 285 285 288 289 287 286 284 283 282 279 277 275 273
287 287 288 287 287 287 287 286 284 285 284 284 283 283 283 283 287 288 287 283 282 282 284 284 285 285 287 287 285 285 283 283 285 284 283 282 281 280 279 277 276 273 272
287 287 286 287 288 287 286 285 285 284 283 282 282 282 283 283 284 288 288 283 282 281 282 282 284 287 287 287 287 284 282 285 284 281 280 279 279 278 276 275 274 272 269
286 287 288 288 287 286 286 284 284 283 282 280 280 278 280 282 283 287 288 288 286 281 280 283 284 287 288 286 285 286 286 284 281 280 279 278 277 277 275 274 273 269 271
287 289 287 287 287 286 286 284 282 282 281 280 280 279 278 279 281 287 288 289 288 282 284 284 285 286 286 285 286 285 280 280 279 278 278 277 277 275 274 272 270 271 271
286 287 287 286 285 285 285 285 284 282 280 280 280 279 278 276 277 277 279 281 284 285 285 283 284 284 284 284 281 279 275 278 279 278 277 275 273 269 269 269 267 269 269
286 286 286 286 286 285 284 284 283 284 284 282 281 281 277 274 275 281 280 275 276 282 283 283 282 281 280 280 280 279 270 274 277 278 271 269 265 265 265 266 266 265 265
283 285 285 285 285 285 284 282 286 285 285 286 285 281 278 282 285 286 286 286 287 287 284 282 281 274 272 279 279 279 270 271 271 269 266 264 263 263 263 264 264 262 261
282 283 283 283 283 283 283 283 280 280 286 286 286 285 284 284 287 287 287 288 287 286 283 281 280 279 271 279 279 278 272 270 269 267 263 262 262 261 261 261 262 260 258
279 280 282 282 283 283 283 283 283 281 280 280 284 286 288 288 288 288 288 288 284 279 276 281 279 278 277 280 279 277 266 267 267 272 263 260 259 259 258 258 258 256 255
274 280 282 281 282 282 283 283 283 282 281 278 273 278 276 287 288 288 288 276 274 267 268 280 279 278 275 279 279 271 264 265 265 264 260 258 257 258 255 255 255 256 254
269 272 276 280 280 280 281 281 279 279 278 277 276 276 274 276 271 267 266 277 274 270 272 281 279 278 272 265 265 262 264 263 261 263 261 258 256 258 256 254 254 254 252
271 272 273 276 278 281 280 280 279 278 278 276 275 271 278 276 275 275 262 260 265 265 266 268 277 268 262 262 261 261 263 263 263 264 266 261 258 255 253 254 251 253 255
274 276 277 277 277 277 277 277 276 276 275 275 273 272 282 278 277 276 272 265 263 263 264 264 265 265 265 263 265 264 264 264 264 264 267 263 259 256 254 252 251 250 250
270 272 274 274 275 276 275 275 275 275 275 275 275 274 271 273 275 276 277 278 277 278 273 262 261 264 261 263 265 268 267 267 267 267 267 264 261 259 255 252 252 249 249
266 268 270 271 272 273 274 275 275 275 275 275 274 273 272 272 263 264 265 265 266 268 277 277 274 266 261 262 264 266 266 266 268 268 268 266 263 260 256 251 253 249 251
262 264 265 266 267 269 271 272 272 273 274 273 273 272 271 271 269 262 262 263 265 266 270 277 277 276 273 265 265 265 267 270 267 267 268 267 264 261 259 255 251 249 248
259 260 259 262 264 265 267 268 269 271 271 271 270 267 268 268 261 260 261 262 263 265 267 267 268 269 276 272 267 268 272 274 269 267 267 267 264 261 259 256 253 253 252
Wind_Speed
9 9 11 10 10 10 10 9 9 8 8 7 7 6 6 6 5 5 4 3 3 2 2 2 2 2 2 3 3 3 4 5 8 9 7 7 10 11 10 9 9 11 8
9 10 10 10 10 11 10 9 9 9 7 7 6 6 6 6 5 5 4 3 3 1 2 3 2 2 3 3 3 4 5 5 7 13 8 8 10 9 8 10 11 9 8
8 10 10 10 10 10 10 9 8 9 7 6 6 6 6 5 5 5 4 4 3 2 2 3 3 3 4 3 4 4 4 5 6 6 8 7 5 9 8 8 9 9 6
7 8 10 10 10 9 9 10 9 8 8 7 6 6 6 5 5 5 5 5 3 2 3 3 4 4 4 4 5 5 5 6 6 6 6 7 5 5 5 7 10 7 9
6 7 7 7 8 9 9 8 8 8 7 7 7 5 5 5 4 5 5 5 2 2 3 4 4 3 6 7 5 5 6 5 5 5 7 7 6 6 8 7 7 10 11
8 8 7 8 8 8 8 8 8 7 7 7 6 6 6 3 9 10 7 4 2 2 3 4 4 5 4 9 11 12 10 7 7 5 7 10 9 7 6 5 7 7 5
7 7 7 8 9 8 8 9 8 8 6 6 6 7 6 5 11 10 7 3 2 4 3 3 3 4 4 4 8 13 11 12 12 8 9 9 8 4 4 7 7 6 6
7 8 8 9 9 8 9 9 7 7 7 7 7 6 6 5 11 9 8 4 2 5 3 3 4 5 4 5 6 7 7 6 7 6 7 7 3 3 3 4 7 8 8
7 8 6 7 8 8 10 9 6 6 6 6 5 7 7 6 11 10 7 4 4 4 2 3 4 5 7 9 6 7 8 5 4 11 6 5 6 8 8 6 4 5 4
9 9 10 12 10 10 9 8 4 5 5 5 5 6 7 6 10 11 8 3 4 2 1 4 7 5 8 9 6 5 8 7 6 4 3 3 4 5 8 5 5 4 3
5 8 6 6 9 9 8 5 7 6 5 5 5 4 5 5 6 11 13 4 3 2 2 3 3 10 10 12 11 3 4 8 7 3 2 1 1 2 3 3 4 4 2
7 7 11 10 9 8 9 6 7 8 7 6 5 3 2 4 8 11 13 11 7 3 1 3 5 12 12 13 8 9 10 9 3 3 2 1 1 2 2 2 3 3 2
10 13 10 10 10 10 11 9 5 6 6 6 6 5 4 3 3 11 12 11 8 2 3 5 11 13 11 9 8 8 4 2 3 2 2 1 1 2 2 1 2 3 4
11 12 14 13 12 10 7 7 8 8 7 6 6 5 4 3 3 3 2 3 7 4 5 3 5 7 8 9 3 3 1 2 2 2 1 1 1 3 2 1 1 2 3
10 9 10 11 13 13 10 10 9 8 10 9 7 6 6 4 5 9 7 4 3 4 4 2 1 5 2 4 3 1 2 2 1 1 1 1 2 2 2 2 1 2 3
9 8 8 8 10 10 12 8 11 7 12 8 8 8 3 3 9 12 12 12 11 8 4 4 5 3 3 3 3 2 1 1 1 1 1 1 2 2 2 3 3 3 2
10 7 7 9 9 10 10 12 11 3 7 12 9 10 10 9 10 12 12 11 9 8 5 4 5 5 3 3 3 1 1 1 1 2 1 1 2 2 3 2 1 3 3
6 6 7 8 9 10 11 11 9 11 9 5 6 6 9 10 10 11 11 10 6 6 3 5 6 5 4 3 3 1 1 1 1 2 2 2 1 3 2 1 1 3 1
4 6 7 7 8 9 9 8 8 8 7 4 3 3 2 6 7 9 12 4 5 3 3 5 6 5 4 4 4 2 3 3 2 3 3 3 2 4 2 2 2 3 4
3 2 4 6 5 7 8 8 7 7 6 6 5 4 3 4 2 3 0 3 3 3 4 6 5 5 4 4 3 2 2 2 2 3 2 3 2 3 4 3 3 2 1
3 1 2 4 2 5 7 8 7 7 6 5 3 3 8 4 3 3 2 3 3 4 4 4 5 3 3 3 2 3 3 3 3 3 3 3 3 3 3 3 3 3 4
5 3 5 6 4 4 4 5 5 5 4 4 3 2 11 4 3 2 3 3 4 4 4 4 3 4 4 4 4 4 4 4 4 4 4 4 4 3 5 3 3 2 2
6 7 6 5 4 4 4 4 4 4 3 3 2 4 2 3 3 4 4 4 5 3 3 2 3 3 2 4 4 5 5 6 5 6 6 6 5 5 5 3 5 3 3
7 7 6 5 5 4 4 3 3 4 5 4 4 3 2 1 2 3 3 3 3 3 2 2 3 4 3 4 4 4 4 4 5 6 8 7 6 6 4 4 4 3 4
4 5 5 5 5 4 3 3 2 2 2 3 3 3 3 2 2 2 4 4 4 3 4 3 3 4 5 7 7 7 6 8 7 7 6 8 8 10 7 5 4 3 3
4 5 3 3 3 3 3 3 3 2 1 2 2 2 2 1 2 3 4 4 4 4 5 4 5 8 6 5 8 8 8 11 9 10 8 7 8 7 7 7 8 5 6
Wind_Direction
129 127 131 129 133 136 130 137 136 129 137 140 145 141 139 136 135 125 122 115 132 179 204 226 264 286 263 269 272 275 279 282 288 302 301 310 306 315 309 298 310 311 299
127 127 126 130 135 127 128 141 133 139 141 144 141 138 140 139 138 130 133 132 173 228 255 273 294 292 276 278 270 283 301 300 293 298 310 308 304 307 303 310 318 308 294
124 130 135 140 132 137 140 135 138 141 143 140 139 145 147 145 140 146 154 168 203 238 262 286 281 287 287 295 301 294 287 287 286 285 298 306 300 314 315 303 291 289 275
130 138 142 145 145 143 141 143 145 148 145 145 148 146 146 148 153 164 169 188 191 259 281 269 270 275 284 309 293 281 286 287 280 280 288 295 293 295 288 296 306 305 302
130 140 151 140 135 137 142 144 141 144 147 150 144 142 142 154 164 175 185 191 158 275 279 270 265 276 308 292 289 297 292 291 287 288 291 289 291 306 310 309 298 312 308
158 159 144 142 143 147 143 148 149 152 153 149 150 152 164 164 186 191 175 170 199 249 261 281 279 274 290 309 305 305 295 295 292 287 292 294 291 303 301 315 306 317 325
160 150 154 151 154 156 150 153 163 163 148 156 155 169 164 176 183 171 162 172 187 261 256 284 293 275 280 279 297 299 292 298 296 287 281 284 293 339 326 303 303 291 273
166 163 160 164 160 158 161 168 161 160 164 166 176 165 163 187 183 178 172 189 188 256 281 282 276 282 281 292 292 295 294 289 308 301 272 291 344 358 320 296 297 295 276
179 162 156 157 162 166 175 171 162 154 175 172 172 172 175 188 183 187 183 183 208 252 283 306 276 275 282 303 301 295 308 302 321 332 11 14 16 8 356 321 319 326 306
178 189 177 163 169 178 178 180 142 168 174 164 174 186 183 179 192 197 194 177 215 234 289 283 276 281 311 314 298 289 312 313 322 326 327 351 18 24 12 358 330 318 300
161 132 150 184 174 183 174 171 165 160 148 172 179 183 185 181 192 201 211 187 188 190 216 273 291 308 309 323 306 286 284 310 328 308 296 303 18 71 38 24 6 357 316
143 163 183 189 187 154 179 164 166 157 167 179 176 188 227 217 201 212 216 213 212 178 223 289 299 303 309 318 314 310 317 331 308 298 300 313 359 55 68 50 39 4 348
178 181 190 181 178 163 177 172 162 162 178 189 190 190 213 211 209 217 214 213 220 166 265 279 302 315 321 316 319 317 353 321 320 311 309 357 27 37 85 80 6 340 19
202 201 184 185 177 164 179 174 182 184 186 189 192 195 199 195 211 198 193 186 203 224 248 254 292 307 334 311 311 329 321 294 299 304 321 16 350 32 18 333 349 329 28
221 213 202 188 187 168 184 183 192 201 188 185 196 185 176 203 224 193 175 181 188 199 234 260 314 294 289 321 282 320 322 314 318 323 12 309 49 28 0 341 34 17 83
221 216 197 197 191 187 174 173 208 191 190 202 188 173 203 151 164 172 185 189 204 226 248 275 288 274 261 295 292 306 330 303 297 65 38 24 92 68 47 1 44 64 81
224 208 197 195 189 185 184 180 183 191 187 206 193 178 165 171 182 176 185 200 210 223 234 261 275 279 254 264 279 276 271 201 139 80 101 118 111 77 84 21 68 77 17
224 210 196 199 199 191 188 186 174 171 181 184 213 186 199 200 191 193 193 190 211 234 191 246 261 269 261 256 262 255 278 170 140 123 113 127 122 117 94 102 30 106 68
199 208 199 196 198 188 181 170 168 166 169 148 111 84 44 173 186 193 191 167 189 202 204 238 247 261 261 265 265 255 209 191 172 142 143 147 178 117 94 109 86 71 103
346 205 177 179 174 168 163 160 155 148 158 162 153 160 155 120 152 198 174 175 195 213 221 238 245 247 251 246 253 219 190 162 154 146 140 144 186 126 138 148 137 124 93
301 32 122 101 122 169 166 158 149 156 158 148 135 162 195 142 149 186 208 213 200 211 223 229 240 235 221 229 231 211 191 192 164 151 155 164 159 128 133 110 110 109 128
351 7 55 59 60 71 85 92 102 111 117 135 109 210 191 143 149 189 214 244 243 228 219 209 234 224 213 200 207 200 190 190 173 152 163 159 152 136 122 115 113 119 129
11 9 29 54 49 67 78 89 103 110 105 95 150 208 136 131 172 208 227 229 217 228 216 195 223 270 231 227 207 197 186 197 186 161 158 158 159 163 140 147 140 128 147
359 7 18 24 44 37 50 71 89 122 141 154 167 176 163 174 251 262 263 259 266 247 196 207 217 238 258 245 222 207 200 178 156 167 157 160 157 155 146 124 153 151 136
4 15 17 10 23 15 25 60 75 100 115 119 126 128 133 73 324 290 278 275 277 271 255 211 220 225 241 246 239 210 189 171 157 149 154 155 159 159 163 134 145 129 125
17 25 12 28 28 27 9 11 31 44 78 120 111 106 96 180 231 249 261 275 281 279 274 272 248 240 212 218 237 228 197 172 164 160 150 155 156 156 159 151 156 156 151